Regional Weather Roundup
Issued by NWS

Home | Current Version | Previous Version | Text Only | Print | Product List | Glossary On
Versions: 1 2 3 4 5 6 7 8 9 10 11 12 13 14 15 16 17 18 19 20 21 22 23 24 25 26 27 28 29 30 31 32 33 34 35 36 37 38 39 40 41 42 43 44 45 46 47 48 49 50
000
ASUS46 KSEW 210710
RWRWA

WASHINGTON REGIONAL WEATHER ROUNDUP
NATIONAL WEATHER SERVICE SEATTLE WA
1200 AM PDT THU AUG 21 2014

NOTE:"FAIR" INDICATES FEW OR NO CLOUDS BELOW 12,000 FEET WITH NO
SIGNIFICANT WEATHER AND/OR OBSTRUCTIONS TO VISIBILITY.

WAZ505-507>509-210800-
SEATTLE, TACOMA, EVERETT, AND VICINITY

CITY           SKY/WX    TMP DP  RH WIND       PRES   REMARKS
EVERETT        CLEAR     59  53  80 W5        30.01R
BOEING FIELD   CLEAR     62  51  67 S6        30.01R
RENTON         CLEAR     62  53  72 S5        30.01R
SEATAC AIRPORT PTCLDY    58  51  78 SW8       30.02S
JBLM-MCCHORD   CLEAR     55  51  83 SW6       30.02S
PUYALLUP       NOT AVBL
JBLM-FT LEWIS  CLEAR     57  50  79 S6        30.02R
TACOMA NARROWS CLEAR     57  50  77 SW3       30.02R
$$

WAZ001-503-506-510-514-515-210800-
NORTH INTERIOR

CITY           SKY/WX    TMP DP  RH WIND       PRES   REMARKS
BELLINGHAM     PTCLDY    62  54  74 S6        29.98R
FRIDAY HARBOR  CLEAR     50  49  96 CALM      30.00R
EASTSOUND      PTCLDY    57  54  88 S5        29.96R
PORT ANGELES   CLEAR     53  50  89 W9        30.00R
NAS WHIDBEY    PTCLDY    56  51  84 SW6       30.01R
BURLINGTON     CLEAR     57  54  88 SW5       30.01R
$$

WAZ020-022-039-040-504-511-512-210800-
SOUTHWEST INTERIOR

CITY           SKY/WX    TMP DP  RH WIND       PRES   REMARKS
SHELTON        CLOUDY    56  51  84 SW12      29.99S
OLYMPIA        CLEAR     54  49  83 SW6       30.02R
CHEHALIS       FAIR      55  52  88 CALM      30.03S
KELSO          CLEAR     57  48  72 CALM      30.07R
VANCOUVER      CLEAR     61  50  67 NW5       30.01R
SCAPPOOSE, OR  CLEAR     59  50  72 N5        30.01R
PORTLAND, OR   CLEAR     62  52  69 NW6       30.02R
$$

WAZ021-516-517-210800-
WASHINGTON COAST

CITY           SKY/WX    TMP DP  RH WIND       PRES   REMARKS
FORKS          CLOUDY    55  51  86 CALM      30.02S
HOQUIAM        CLOUDY    58  53  84 W5        30.03R
ASTORIA, OR    PTCLDY    56  51  84 SW5       30.04S
$$

WAZ019-023-024-040-518-519-210800-
CASCADE MOUNTAINS AND COLUMBIA GORGE

CITY           SKY/WX    TMP DP  RH WIND       PRES   REMARKS
STAMPEDE PASS  NOT AVBL
TROUTDALE, OR  CLEAR     61  51  70 VRB3      30.01R
THE DALLES, OR CLEAR     69  47  45 NW13      29.90R
$$

WAZ026-027-041>044-520-521-210800-
EAST SLOPES

CITY           SKY/WX    TMP DP  RH WIND       PRES   REMARKS
OMAK           LGT RAIN  73  48  41 N8        29.86R
WENATCHEE      CLEAR     70  46  42 NW13      29.88R
ELLENSBURG     CLEAR     63  49  60 NW22G35   29.90R
YAKIMA         CLEAR     67  48  50 N10       29.89R
$$

WAZ028-034-035-210800-
COLUMBIA BASIN

CITY           SKY/WX    TMP DP  RH WIND       PRES   REMARKS
EPHRATA        CLEAR     71  46  40 NW13      29.82R
MOSES LAKE     CLEAR     69  51  52 SW3       29.83R
PASCO          CLEAR     68  50  52 SE3       29.85R
HERMISTON, OR  CLEAR     66  48  52 SW13      29.87R
$$

WAZ036>038-210800-
NORTHEAST WASHINGTON

CITY           SKY/WX    TMP DP  RH WIND       PRES   REMARKS
SPOKANE GEIGER PTCLDY    62  57  83 NE6       29.91R
SPOKANE FELTS  CLEAR     60  53  77 NE3       29.90S
FAIRCHILD AFB  MOCLDY    60  56  85 VRB2      29.91S
COEURDALENE,ID PTCLDY    57  52  82 E8        29.91S
DEER PARK      CLEAR     57  53  86 CALM      29.92S
$$

WAZ029>033-210800-
SOUTHEAST WASHINGTON

CITY           SKY/WX    TMP DP  RH WIND       PRES   REMARKS
PULLMAN        PTCLDY    62  49  62 N7        29.93R
LEWISTON, ID   CLEAR     68  39  34 S3        29.87R
WALLA WALLA    CLEAR     68  44  42 S13       29.90R
PENDLETON, OR  CLEAR     65  43  44 VRB5      29.91R
$$


USA.gov is the U.S. government's official web portal to all federal, state and local government web resources and services.